Hourly Data Report for February 07, 2003

TORONTO CITY
ONTARIO

43°40'00.000" N
79°24'00.000" W
112.50 m
6158355
71508
XTO

Download Data

Hourly Data (February 2003)
Hourly Data Report for February 7, 2003
TIME
LST
Temp Definition
°C
Dew Point Definition
°C
Rel Hum Definition
%
Precip. Amount Definition
mm

Wind Dir Definition
10's deg

Wind Spd Definition
km/h
Visibility Definition
km
Stn Press Definition
kPa
Hmdx Definition


Wind Chill Definition


Weather Definition


00:00 -1.8 -5.9 74     0 LegendMM 100.40     LegendNANA
01:00
02:00 -4.9 -10.5 65     0 LegendMM 100.39     LegendNANA
03:00 -5.5 -11.7 62     0 LegendMM 100.39     LegendNANA
04:00 -7.1 -11.7 70     0 LegendMM 100.39     LegendNANA
05:00 -7.5 -11.8 71     0 LegendMM 100.42     LegendNANA
06:00 -8.8 -12.0 78     0 LegendMM 100.41     LegendNANA
07:00 -9.2 -12.7 76     0 LegendMM 100.42     LegendNANA
08:00
09:00 -8.9 -15.3 60     0 LegendMM 100.48     LegendNANA
10:00 -8.4 -15.9 55     0 LegendMM 100.42     LegendNANA
11:00 -7.3 -16.8 47     0 LegendMM 100.43     LegendNANA
12:00 -6.5 -16.8 44     0 LegendMM 100.36     LegendNANA
13:00 -4.9 -17.8 36     0 LegendMM 100.26     LegendNANA
14:00
15:00 -5.6 -15.7 45     0 LegendMM 100.13     LegendNANA
16:00 -5.6 -15.7 45     0 LegendMM 100.08     LegendNANA
17:00 -5.3 -16.9 40     0 LegendMM 100.07     LegendNANA
18:00 -6.2 -16.6 44   LegendMM LegendMM LegendMM 100.09     LegendNANA
19:00 -6.7 -15.2 51     0 LegendMM 100.11     LegendNANA
20:00 -7.1 -14.5 55     0 LegendMM 100.12     LegendNANA
21:00 -7.2 -14.1 58     0 LegendMM 100.11     LegendNANA
22:00 -7.0 -13.3 61     0 LegendMM 100.11     LegendNANA
23:00 -7.2 -12.6 65     0 LegendMM 100.09     LegendNANA

Notes on Data Quality.

Legend

  • E = Estimated
  • M = Missing
  • NA = Not Available*
  • [empty] = Indicates an unobserved value
Date modified: